Location: Clanezzo
(45.7500°N, 9.6000°E)
Time: 20:35:13
(UTC+00:00)

Cosmos 773 Rocket - Pass Details

Date: 07 October 2021
Orbit: 745 x 777 km, 74.1° (Epoch: 21 October)

Event Time Altitude Azimuth Distance (km) Brightness Sun altitude
Rises 17:41:25 0° 320° (NW) 3,260 7.9 -9.7°
Reaches altitude 10° 17:44:58 10° 296° (WNW) 2,330 7.7 -10.4°
Maximum altitude 17:47:32 14° 267° (W) 2,073 7.7 -10.8°
Drops below altitude 10° 17:50:06 10° 237° (WSW) 2,325 7.4 -11.3°
Sets 17:53:39 0° 213° (SSW) 3,246 7.7 -11.9°
